ROMMA est une association bénévole à but non lucratif. Votre soutien est indispensable : ADHERER à ROMMA ou FAIRE un DON

Arâches-la-Frasse - (74, Haute-Savoie)

Domaine du Grand Massif (1120 m)   Longitude: 06° 38' 33" E   Latitude: 46° 02' 45" N Station partenaire n°39
 

Détail journalier du     <<     >>

Température Humidité Vent Dir Rafale Dir. rafale Ensol.
Heure (°C) (%) (km/h) (km/h) (min)
01:00 10.6826ENE10ESE0
02:00 9.9835E11ESE0
03:00 10.0815ESE11ESE0
04:00 10.0795ESE11ESE0
05:00 10.1775ESE11ESE0
06:00 10.2775ESE11ESE0
07:00 10.2746ESE13ESE0
08:00
09:00 11.6762ESE8ESE0
10:00 14.1751ESE8ESE60
11:00 14.96803ESE0
12:00 16.2632ESE6ESE0
13:00 16.4612SO8SO30
14:00 17.1613SO15OSO60
15:00 16.4625N15NNO60
16:00 16.2632N10N30
17:00 14.1732E8E30
18:00 12.3764ESE10ESE0
19:00 11.8776E11ESE0
20:00 12.3744ESE13ESE0
21:00 12.1755ESE11ESE0
22:00 12.1753ESE8ESE0
23:00 12.1764ESE8ESE0
minuit 12.1764ESE6ESE0

Graphique du 27-10-2019

 

Serveur OMMA